Sedalia, MO

2:20 PM CST on February 17, 2018 (GMT -0600)
Sedalia Memorial

Weather History for KDMO - November, 2013

Change the Weather History Date:

Thursday, November 21, 2013

  Actual Average Record
Temperature  
Mean Temperature 43 °F 44 °F  
Max Temperature 51 °F 53 °F 74 °F (1990)
Min Temperature 34 °F 35 °F 4 °F (1937)
Degree Days  
Heating Degree Days 22 21  
Month to date heating degree days 349 344  
Since 1 July heating degree days 647 635  
Cooling Degree Days 0 0  
Month to date cooling degree days 0 0  
Year to date cooling degree days 1485 1487  
Moisture  
Dew Point 44 °F    
Average Humidity 82    
Maximum Humidity 100    
Minimum Humidity 63    
Precipitation  
Precipitation 0.69 in 0.09 in 2.50 in (1979)
Month to date precipitation 2.04 2.21  
Year to date precipitation 39.06 37.90  
Sea Level Pressure  
Sea Level Pressure 30.14 in    
Wind  
Wind Speed 8 mph (North)    
Max Wind Speed 22 mph    
Max Gust Speed 29 mph    
Visibility 5 miles    
Events Rain    
T = Trace of Precipitation, MM = Missing Value Source: NWS Daily Summary

Daily Weather History Graph

Daily Weather History Graph

Search for Another Location

Airport or City:

Trip Planner

Search our weather history database for the weather conditions in past years. The results will help you decide how hot, cold, wet, or windy it might be!

Date:

Astronomy

Nov. 21, 2013 Rise Set
Actual Time 7:01 AM CST 4:55 PM CST
Civil Twilight 6:32 AM CST 5:24 PM CST
Nautical Twilight 6:00 AM CST 5:56 PM CST
Astronomical Twilight 5:28 AM CST 6:28 PM CST
Moon 8:32 PM CST (11/21) 10:08 AM CST (11/21)
Length of Visible Light 10h 51m
Length of Day
9h 53m
Waning Gibbous, 85% of the Moon is Illuminated
Nov 21
Waning Gibbous
Nov 25
Last Quarter
Dec 2
New
Dec 9
First Quarter
Dec 17
Full

Hourly Weather History & Observations

Time (CST) Temp. Windchill Dew Point Humidity Pressure Visibility Wind Dir Wind Speed Gust Speed Precip Events Conditions
12:53 AM 48.0 °F - 39.0 °F 71% 30.03 in 10.0 mi SSE 8.1 mph - N/A   Overcast
1:53 AM 48.9 °F - 39.9 °F 71% 30.02 in 10.0 mi SE 8.1 mph - N/A   Overcast
2:53 AM 50.0 °F - 39.0 °F 66% 30.03 in 10.0 mi SSE 6.9 mph - N/A   Overcast
3:53 AM 50.0 °F - 39.9 °F 68% 30.02 in 10.0 mi SE 6.9 mph - N/A   Overcast
4:53 AM 51.1 °F - 39.0 °F 63% 30.04 in 10.0 mi SSE 6.9 mph - N/A   Overcast
5:53 AM 50.0 °F - 41.0 °F 71% 30.05 in 10.0 mi South 9.2 mph - 0.00 in Rain Light Rain
6:02 AM 48.9 °F - 42.1 °F 77% 30.05 in 10.0 mi South 10.4 mph - 0.00 in Rain Light Rain
6:27 AM 48.0 °F - 43.0 °F 83% 30.03 in 9.0 mi SSE 9.2 mph - 0.02 in Rain Light Rain
6:53 AM 48.0 °F - 44.1 °F 86% 30.06 in 10.0 mi South 6.9 mph - 0.03 in Rain Light Rain
7:53 AM 48.0 °F - 44.1 °F 86% 30.08 in 7.0 mi SSE 9.2 mph - 0.02 in Rain Light Rain
8:53 AM 48.0 °F - 45.0 °F 89% 30.12 in 4.0 mi South 9.2 mph - 0.07 in Rain Rain
9:27 AM 48.0 °F - 46.0 °F 93% 30.11 in 2.5 mi South 6.9 mph - 0.13 in Rain Rain
9:53 AM 48.0 °F - 46.0 °F 93% 30.12 in 4.0 mi South 4.6 mph - 0.21 in Rain Rain
10:53 AM 48.0 °F - 46.0 °F 93% 30.11 in 4.0 mi SE 4.6 mph - 0.14 in Rain Rain
11:53 AM 48.9 °F - 46.9 °F 93% 30.11 in 4.0 mi Calm Calm - 0.09 in Rain Light Rain
12:02 PM 48.9 °F - 46.9 °F 93% 30.10 in 3.0 mi Calm Calm - 0.01 in Rain Rain
12:53 PM 50.0 °F - 48.0 °F 93% 30.09 in 5.0 mi SE 3.5 mph - 0.05 in Rain Light Rain
12:55 PM 50.0 °F - 48.0 °F 93% 30.08 in 5.0 mi SE 4.6 mph - 0.00 in Rain Light Rain
1:02 PM 50.0 °F - 48.0 °F 93% 30.07 in 5.0 mi SE 4.6 mph - 0.00 in Rain Light Rain
1:11 PM 50.0 °F - 48.0 °F 93% 30.07 in 5.0 mi SE 5.8 mph - 0.00 in Rain Light Rain
1:22 PM 50.0 °F - 48.9 °F 96% 30.08 in 4.0 mi South 3.5 mph - 0.01 in Rain Light Rain
1:31 PM 50.0 °F - 48.9 °F 96% 30.08 in 5.0 mi South 3.5 mph - 0.02 in Rain Light Rain
1:53 PM 50.0 °F - 48.9 °F 96% 30.08 in 7.0 mi Calm Calm - 0.02 in Rain Light Rain
2:37 PM 51.1 °F - 48.9 °F 92% 30.08 in 5.0 mi Calm Calm - 0.01 in Rain Light Rain
2:49 PM 51.8 °F - 48.2 °F 88% 30.08 in 7.0 mi Calm Calm - 0.01 in Rain Light Rain
2:53 PM 51.1 °F - 48.9 °F 92% 30.09 in 7.0 mi Calm Calm - 0.01 in   Overcast
3:06 PM 51.1 °F - 48.9 °F 92% 30.09 in 8.0 mi Calm Calm - 0.01 in   Overcast
3:25 PM 51.1 °F - 48.9 °F 92% 30.10 in 5.0 mi Calm Calm - 0.01 in   Overcast
3:38 PM 51.1 °F - 48.9 °F 92% 30.11 in 1.8 mi NW 4.6 mph - 0.01 in   Overcast
3:50 PM 50.0 °F - 48.2 °F 94% 30.11 in 1.0 mi NNW 4.6 mph - 0.01 in   Overcast
3:53 PM 50.0 °F - 48.9 °F 96% 30.12 in 1.0 mi NNW 5.8 mph - 0.01 in   Overcast
4:48 PM 50.0 °F - 48.2 °F 94% 30.13 in 1.5 mi North 5.8 mph - 0.00 in Rain Light Rain
4:53 PM 50.0 °F - 48.0 °F 93% 30.15 in 2.0 mi NNW 6.9 mph - 0.00 in Rain Light Rain
5:01 PM 50.0 °F - 48.0 °F 93% 30.14 in 1.8 mi North 5.8 mph - 0.01 in   Overcast
5:53 PM 48.9 °F - 48.0 °F 97% 30.17 in 2.0 mi North 6.9 mph - 0.01 in Rain Light Rain
6:53 PM 48.0 °F - 46.9 °F 96% 30.19 in 3.0 mi North 11.5 mph - 0.02 in   Overcast
7:28 PM 48.0 °F - 46.9 °F 96% 30.19 in 2.5 mi North 11.5 mph - N/A   Overcast
7:53 PM 46.9 °F - 46.0 °F 97% 30.22 in 2.5 mi North 11.5 mph - 0.00 in Rain Light Rain
8:32 PM 45.0 °F 37.9 °F 43.0 °F 93% 30.23 in 1.8 mi NNW 16.1 mph - 0.00 in Rain Light Rain
8:53 PM 44.1 °F 36.5 °F 42.1 °F 93% 30.25 in 1.8 mi NNW 17.3 mph - 0.00 in Rain Light Rain
9:02 PM 44.1 °F 37.4 °F 42.1 °F 93% 30.25 in 2.0 mi NNW 13.8 mph - 0.00 in Rain Light Rain
9:53 PM 37.9 °F 28.5 °F 37.0 °F 97% 30.30 in 2.5 mi NNW 17.3 mph 24.2 mph 0.00 in Rain Light Rain
10:09 PM 37.9 °F 29.2 °F 36.0 °F 93% 30.29 in 3.0 mi NNW 15.0 mph - 0.00 in Rain Light Rain
10:53 PM 36.0 °F 26.0 °F 34.0 °F 93% 30.33 in 3.0 mi NNW 17.3 mph 25.3 mph 0.00 in Rain Light Rain
11:05 PM 35.1 °F 24.1 °F 34.0 °F 96% 30.32 in 3.0 mi NNW 19.6 mph - 0.00 in Rain Light Rain
11:22 PM 35.1 °F 24.1 °F 33.1 °F 92% 30.32 in 3.0 mi NNW 19.6 mph - 0.00 in Rain Light Rain
11:33 PM 35.1 °F 25.2 °F 33.1 °F 92% 30.33 in 3.0 mi NNW 16.1 mph 25.3 mph 0.00 in Rain Light Rain
11:53 PM 34.0 °F 24.2 °F 33.1 °F 96% 30.36 in 4.0 mi NW 15.0 mph - 0.00 in Rain Light Rain